Wind_Speed
18 19 21 22 23 25 27 31 35 38 42 44 48 51 56 59 61 59 56 55 54 53 51 54 57 59 60 61 64 64 66 67 69 71 73 74 67 62 57 56 58 60 62 62 59 55 51 56 60 58 53 52 54 51
21 23 25 26 29 30 34 37 41 43 45 49 53 57 58 60 58 56 55 57 58 58 57 57 61 63 64 65 66 66 69 72 74 75 73 67 62 57 54 48 48 50 51 53 51 47 51 54 57 60 56 52 52 50
25 27 29 32 33 37 40 42 43 47 52 54 57 61 60 60 58 58 59 59 58 61 60 62 65 66 69 70 73 74 74 76 73 71 67 62 55 48 45 42 45 45 49 47 44 43 49 52 57 56 53 48 48 47
31 32 34 38 40 41 42 45 50 53 56 58 60 62 60 60 61 61 60 61 63 64 64 67 69 70 73 75 77 77 75 69 65 63 56 49 43 39 41 41 41 40 43 44 42 43 46 50 51 50 47 44 47 41
36 38 40 41 41 44 48 53 57 58 60 62 64 61 61 62 63 64 64 64 66 68 70 72 73 76 77 78 76 74 65 59 55 48 45 40 35 36 34 33 35 36 38 40 40 41 46 48 47 46 45 43 45 41
41 40 41 44 48 51 54 57 59 61 65 65 62 62 63 64 66 67 70 70 71 72 74 77 80 82 79 75 71 64 61 50 42 38 35 31 29 28 25 25 28 30 33 37 38 41 43 44 43 43 43 41 43 42
40 43 48 51 54 57 60 62 65 68 68 65 63 65 67 69 72 73 73 76 76 78 82 85 83 79 73 68 63 56 45 38 32 28 25 23 21 20 18 19 22 31 34 35 37 39 39 39 40 39 40 38 40 40
48 51 54 57 60 62 65 67 69 70 67 66 67 70 72 74 77 78 80 82 83 84 86 82 77 71 68 63 53 41 34 28 24 20 17 16 15 15 12 13 21 28 29 31 34 34 34 34 35 37 35 35 37 40
57 59 62 64 67 69 71 72 70 67 66 69 73 75 79 80 83 85 88 87 85 85 81 74 69 65 62 51 39 33 27 20 15 12 11 10 10 11 14 19 22 24 25 27 31 33 30 30 30 29 33 35 39 42
66 68 69 71 72 71 70 70 68 67 71 74 76 81 84 85 88 91 91 85 80 75 69 66 64 62 47 36 31 25 16 11 9 9 9 10 12 14 16 19 22 23 26 27 27 29 31 31 31 29 33 40 42 41
71 70 68 69 70 70 69 69 69 73 75 77 81 84 86 90 93 93 83 74 69 66 63 63 59 46 34 29 22 15 9 10 11 12 13 12 13 13 14 17 20 21 22 25 28 30 31 31 32 37 38 40 45 44
67 67 66 67 68 69 70 71 74 77 78 81 83 87 90 94 90 78 69 66 65 63 61 57 45 34 30 23 15 11 12 12 16 15 14 14 14 15 16 12 10 13 15 11 12 18 23 25 26 31 41 45 45 47
66 67 68 68 69 71 73 74 77 80 82 85 88 89 91 83 72 67 63 61 64 59 54 44 36 32 26 17 13 15 15 16 17 16 14 16 20 22 23 20 16 14 11 9 11 13 10 4 18 26 29 36 46 49
69 70 71 72 74 76 77 79 81 83 85 88 87 85 75 68 64 63 60 62 56 52 44 37 33 25 17 14 16 19 19 20 19 18 21 25 28 30 30 29 16 16 11 5 9 10 2 8 7 17 23 27 31 43
75 75 76 77 79 80 82 81 82 83 84 83 76 67 65 63 62 62 61 54 52 43 41 35 27 18 13 16 19 22 23 25 25 24 28 31 36 32 30 20 20 14 17 10 7 8 8 5 3 13 21 24 19 34
79 79 80 80 81 81 81 82 81 81 76 67 63 59 61 61 62 61 54 49 43 39 36 30 19 12 14 19 22 24 27 28 27 24 31 34 38 32 29 24 22 21 22 16 18 17 14 8 6 11 20 24 20 15
80 82 81 81 80 80 80 78 75 68 58 59 59 61 62 62 60 53 49 43 41 34 28 22 14 12 16 19 22 30 36 35 29 26 32 37 38 36 32 23 26 25 23 19 18 15 13 11 11 6 16 27 23 18
83 79 76 76 75 73 69 64 56 52 54 57 59 62 61 59 53 48 43 40 33 27 21 14 12 14 18 21 31 39 38 38 35 31 33 39 36 35 30 32 27 28 22 14 18 12 6 10 9 6 7 27 25 18
71 69 66 63 61 59 55 51 50 52 55 59 60 61 59 52 49 43 40 32 25 21 14 12 15 19 23 26 34 35 31 30 28 25 31 36 35 32 32 28 24 27 29 17 19 17 14 16 14 9 10 17 26 28
58 57 53 50 49 48 49 51 53 56 58 62 60 59 52 48 42 39 31 25 20 15 12 17 22 25 28 29 32 34 34 31 27 23 28 35 35 32 28 27 26 24 28 30 23 21 22 21 19 15 13 16 24 39
48 47 45 45 46 47 50 53 57 59 61 60 59 52 47 41 38 30 23 18 13 11 14 18 24 26 26 26 27 29 27 27 24 27 30 34 33 31 29 28 25 25 25 28 27 25 24 25 25 20 20 20 23 29
51 50 50 50 52 54 54 56 58 61 58 56 49 44 39 36 29 22 17 11 8 9 12 17 21 22 25 27 27 28 27 26 26 32 33 33 33 32 29 28 26 24 24 26 27 23 22 25 25 24 23 23 24 29
58 57 57 57 56 56 57 57 56 53 50 46 40 35 32 28 21 16 12 8 8 11 16 20 20 23 27 28 26 27 27 26 28 33 37 35 34 31 29 30 31 25 24 25 26 25 28 27 28 29 28 25 24 28
53 53 52 51 50 50 49 46 45 42 40 35 31 28 25 21 16 11 8 8 10 13 18 18 17 23 26 26 26 29 30 27 27 32 37 37 35 31 29 27 28 29 28 26 25 26 27 31 34 34 32 32 33 33
32 32 34 34 35 35 37 36 36 33 28 27 23 21 20 17 12 8 9 10 14 17 16 17 23 29 29 24 23 24 26 28 24 26 29 39 39 34 32 32 29 28 29 29 29 28 28 28 31 33 35 36 36 38
22 23 25 27 29 29 30 28 25 24 22 19 18 17 16 12 8 7 8 11 15 17 19 22 27 25 23 21 23 24 26 28 32 33 29 25 31 34 34 33 33 31 29 29 31 32 33 34 35 36 37 38 39 40
20 20 22 24 24 22 20 20 19 17 14 13 13 13 11 7 6 8 10 10 13 18 21 24 25 21 16 14 14 20 25 28 28 27 25 23 24 28 29 29 29 31 31 33 36 35 35 36 36 37 38 40 41 42
17 18 17 15 14 15 14 13 12 11 11 12 11 10 9 8 10 11 15 19 22 22 22 22 19 15 12 8 8 8 11 20 25 23 22 24 25 26 28 29 31 31 33 37 35 35 36 39 40 41 43 45 47 48
10 9 8 7 6 4 5 6 5 5 5 5 6 7 10 13 15 12 15 21 24 23 20 21 19 16 16 16 15 13 14 15 17 20 22 23 25 28 30 33 34 35 38 38 38 39 41 43 46 48 50 52 53 55
7 7 5 4 4 5 6 5 3 3 4 4 3 6 10 13 15 15 16 21 23 23 26 22 17 11 8 10 13 13 14 16 17 18 20 23 25 26 29 31 34 37 39 41 41 42 45 48 49 50 52 54 55 57
12 11 11 11 13 14 16 16 15 13 12 11 11 12 12 14 15 14 14 15 22 26 20 14 9 9 9 9 10 13 16 18 20 22 24 25 27 30 32 34 35 37 40 42 45 47 48 49 52 54 56 58 61 63
16 15 16 18 19 19 20 23 24 25 29 30 30 32 32 31 31 32 30 25 19 14 10 8 6 6 7 9 10 13 15 18 20 23 25 27 30 33 36 39 41 43 45 47 50 53 55 56 58 61 63 65 67 69
20 22 23 21 21 20 21 22 23 23 23 23 24 23 20 20 21 20 16 14 10 7 4 3 5 8 11 13 16 19 22 25 28 30 33 35 37 39 42 45 48 51 53 56 58 59 60 60 62 63 63 64 64 64
Wind_Direction
225 230 236 244 251 261 271 281 288 293 296 297 299 302 304 306 306 306 306 304 304 304 304 302 304 304 304 303 302 302 300 298 296 295 296 296 292 285 278 273 269 262 259 258 256 250 242 238 237 236 233 230 238 242
237 242 250 256 264 272 280 286 291 293 296 299 301 303 304 306 307 305 304 304 304 303 304 306 305 306 305 304 302 302 300 299 298 298 297 293 289 285 279 272 264 260 256 253 251 242 235 233 232 230 230 226 233 240
249 253 260 266 272 279 283 289 293 294 297 300 303 307 308 309 309 307 306 305 305 305 306 306 306 307 307 306 303 301 301 300 298 297 294 291 288 282 276 268 263 259 252 248 243 235 227 228 228 226 230 231 236 234
258 263 269 274 279 284 287 291 294 298 300 304 309 309 309 310 310 309 308 306 306 306 305 306 307 307 307 306 305 303 302 299 297 294 290 286 282 277 272 267 260 251 245 238 233 229 221 221 226 227 228 232 237 231
266 272 278 281 282 284 290 293 297 301 304 307 308 307 308 310 310 309 308 307 306 306 307 308 308 309 307 308 307 305 302 299 294 288 284 281 278 275 268 257 249 239 234 229 226 222 216 219 220 224 228 232 235 234
275 276 279 282 285 289 292 294 298 299 302 304 304 306 309 310 311 311 309 309 308 308 308 309 309 310 310 310 308 306 303 300 294 287 281 276 277 274 261 249 236 222 216 219 222 220 216 219 222 225 228 227 233 229
275 277 282 287 289 291 293 294 296 298 299 300 302 306 309 312 312 312 312 310 309 308 310 311 310 310 311 311 309 306 302 299 293 286 277 273 270 260 249 231 217 219 216 213 215 216 216 219 225 226 225 227 228 223
277 281 283 285 288 291 292 293 295 297 299 300 302 305 308 310 312 312 312 312 310 311 311 311 311 311 312 312 309 305 301 297 287 280 271 265 255 246 233 212 208 213 213 205 207 212 215 216 222 227 225 221 215 210
278 282 286 289 289 290 292 294 296 297 297 299 301 304 307 310 313 312 312 311 311 311 311 311 311 313 314 310 306 303 298 288 274 265 250 234 225 196 190 192 199 203 201 203 210 213 217 218 223 228 216 211 206 203
281 285 286 288 289 289 290 292 293 295 296 300 303 305 308 310 311 311 309 310 311 311 311 311 313 315 312 306 304 298 286 262 250 223 194 197 200 196 197 198 202 214 222 224 226 226 225 222 221 223 207 204 204 200
283 284 284 285 287 288 290 291 293 296 299 303 304 306 308 310 310 311 310 311 311 311 311 312 315 313 307 304 298 279 242 226 208 191 185 183 187 192 199 211 219 224 234 240 241 241 241 234 225 217 213 207 204 204
280 282 284 285 286 287 289 292 296 298 301 303 305 308 309 310 310 311 311 311 312 312 312 313 313 309 305 297 274 232 205 207 201 198 189 188 191 195 197 199 186 166 162 171 207 227 231 228 219 214 216 212 207 207
279 282 284 285 287 290 292 295 297 300 303 305 308 308 310 310 310 309 311 312 312 312 312 312 311 306 300 275 232 204 195 196 198 188 179 172 167 162 153 150 156 155 129 108 141 121 94 142 207 215 210 211 213 209
281 283 285 287 289 292 295 296 299 301 304 306 308 308 308 309 310 311 311 313 312 312 310 311 308 301 283 238 207 191 188 194 190 190 172 174 167 161 166 174 169 133 123 125 169 113 153 79 153 175 185 200 211 207
280 283 285 287 289 292 293 296 297 301 304 306 305 306 308 309 310 310 312 312 311 311 309 310 305 290 250 213 196 189 188 192 193 188 175 181 170 176 175 162 159 163 157 161 182 190 194 210 163 173 170 167 182 197
278 281 283 285 287 289 292 295 297 301 303 300 301 307 309 310 311 311 312 311 309 307 304 304 296 267 224 204 194 193 194 197 204 187 182 186 180 182 173 165 179 193 167 184 191 191 199 210 205 193 190 185 196 213
282 283 283 284 287 290 291 294 297 299 297 299 304 308 309 310 311 311 312 309 307 305 296 292 275 239 211 199 193 186 191 197 200 190 184 190 189 187 186 177 180 194 206 195 194 196 190 198 207 235 207 196 202 217
281 282 283 284 286 288 291 293 293 296 299 302 305 310 311 310 310 313 310 307 305 298 289 277 244 218 198 191 185 190 196 200 207 199 181 187 189 194 198 201 194 202 210 217 179 168 226 215 210 146 141 186 191 181
278 280 281 282 285 288 287 287 292 297 302 306 308 311 311 309 312 310 308 305 299 288 278 232 212 202 193 188 192 202 204 212 217 212 185 189 194 196 200 200 203 205 212 199 192 196 215 241 229 182 170 172 175 178
276 276 277 279 281 281 282 286 292 297 303 306 309 310 307 309 308 307 306 302 291 275 240 213 200 197 200 198 197 202 203 205 207 195 189 189 200 202 199 201 207 215 217 220 228 233 231 232 231 216 215 209 197 190
273 273 274 277 279 282 284 288 292 297 301 305 307 306 306 307 306 306 304 297 284 249 216 208 198 202 202 198 195 199 204 205 205 195 190 196 200 203 206 206 220 220 223 223 227 213 212 218 225 229 222 219 214 216
269 271 274 277 281 283 285 288 291 296 299 302 302 303 302 303 303 303 299 293 259 214 205 192 190 202 197 193 194 197 204 205 204 195 197 202 201 206 207 209 209 208 213 215 212 211 221 218 220 221 222 223 228 226
267 270 272 275 277 280 283 286 290 293 296 297 298 298 297 297 299 297 293 266 218 198 188 185 192 195 191 191 191 195 204 210 204 201 203 207 207 210 215 216 217 218 216 219 220 210 212 215 214 219 226 234 235 236
265 268 270 272 273 277 281 285 288 291 292 292 293 290 288 289 291 291 269 229 204 198 191 197 198 191 185 193 195 200 209 213 214 214 209 211 207 211 216 217 218 222 228 228 227 228 223 221 224 230 235 241 246 249
263 263 266 270 273 277 281 284 287 288 287 289 282 280 279 282 284 269 241 211 190 191 198 196 193 189 184 192 198 206 211 211 214 220 223 220 213 218 223 228 225 223 227 232 236 236 236 234 236 240 244 245 249 253
259 265 271 274 278 281 283 284 283 283 281 276 272 268 269 271 262 237 221 203 196 202 202 193 184 175 179 191 201 203 208 212 216 223 225 223 219 224 227 231 235 234 233 236 241 246 248 249 247 246 247 249 253 258
269 271 273 278 281 280 281 281 277 274 270 269 266 263 261 253 219 211 196 179 173 183 184 181 177 177 186 208 221 225 227 215 215 217 222 224 224 228 230 232 238 242 241 242 244 246 247 249 252 256 261 264 266 268
269 274 272 270 274 274 274 275 276 277 275 271 263 255 240 197 185 194 191 172 172 171 174 165 172 178 172 194 212 214 216 217 219 220 222 227 229 230 232 234 236 241 244 244 247 250 252 253 253 257 263 268 270 273
249 241 255 257 264 287 295 292 291 278 264 253 241 224 204 194 189 188 186 174 174 175 177 170 170 182 192 198 205 205 208 208 214 224 228 233 238 241 242 244 246 249 252 253 255 258 260 261 262 263 264 267 270 271
195 187 181 139 101 82 72 60 60 113 140 135 148 177 175 181 184 183 180 179 172 175 168 165 168 180 198 213 218 224 231 234 239 242 242 244 247 251 253 255 257 259 260 262 263 263 264 267 269 270 271 272 273 274
158 149 136 125 115 97 81 71 70 78 92 97 104 122 126 134 143 156 162 165 157 140 142 147 166 202 220 228 234 234 239 246 252 254 256 258 260 261 263 263 265 267 269 270 271 272 272 272 273 275 276 277 277 278
149 140 131 125 115 103 92 85 84 89 94 97 101 105 107 112 115 113 116 120 123 132 155 180 201 222 238 248 258 263 265 265 264 265 266 266 267 268 269 271 272 272 272 272 273 274 275 276 277 278 278 279 280 281
139 136 133 127 119 110 101 100 107 108 103 108 114 111 108 113 110 109 112 120 131 142 165 233 267 276 277 276 277 277 278 278 277 276 275 274 273 273 274 275 275 275 275 275 276 277 279 280 281 281 282 282 282 283
Height
10826 10828 10830 10832 10834 10834 10834 10833 10831 10829 10826 10822 10818 10813 10808 10802 10796 10788 10781 10774 10768 10764 10761 10752 10743 10737 10730 10722 10712 10707 10699 10693 10687 10681 10674 10663 10657 10651 10650 10649 10646 10643 10644 10649 10656 10671 10685 10689 10693 10701 10710 10717 10718 10723
10822 10824 10825 10826 10826 10826 10825 10824 10821 10818 10814 10810 10805 10800 10793 10787 10780 10775 10768 10760 10751 10745 10743 10736 10727 10721 10713 10705 10695 10690 10679 10671 10662 10651 10645 10637 10632 10628 10624 10625 10624 10623 10626 10631 10638 10653 10661 10666 10673 10682 10690 10702 10707 10712
10817 10818 10818 10818 10818 10817 10815 10813 10810 10806 10802 10797 10791 10785 10778 10771 10765 10759 10751 10745 10738 10730 10727 10718 10709 10701 10691 10684 10673 10665 10658 10645 10637 10628 10619 10613 10608 10607 10605 10606 10605 10609 10610 10616 10623 10633 10642 10650 10656 10667 10680 10691 10695 10701
10809 10810 10810 10809 10808 10806 10804 10801 10797 10793 10788 10783 10777 10770 10764 10757 10750 10743 10736 10727 10720 10712 10707 10701 10690 10683 10673 10660 10648 10638 10631 10620 10611 10603 10596 10592 10590 10589 10587 10587 10587 10591 10594 10602 10611 10619 10629 10636 10646 10657 10668 10677 10679 10690
10800 10800 10799 10798 10797 10794 10791 10787 10783 10779 10774 10769 10763 10756 10749 10742 10735 10727 10719 10712 10702 10695 10687 10677 10668 10660 10649 10638 10625 10611 10604 10598 10589 10583 10578 10576 10575 10572 10571 10571 10572 10576 10583 10590 10599 10608 10617 10626 10636 10646 10657 10664 10668 10676
10790 10790 10788 10786 10784 10781 10778 10774 10769 10764 10759 10754 10748 10741 10734 10727 10719 10712 10702 10694 10685 10675 10666 10656 10647 10634 10623 10611 10601 10590 10579 10574 10570 10566 10564 10563 10561 10559 10559 10560 10562 10568 10573 10580 10590 10599 10610 10618 10627 10638 10646 10652 10656 10662
10778 10778 10776 10774 10771 10768 10764 10759 10754 10749 10744 10738 10733 10726 10717 10710 10701 10693 10686 10676 10665 10655 10644 10634 10623 10610 10601 10591 10579 10570 10564 10558 10555 10553 10553 10552 10551 10551 10552 10554 10559 10562 10568 10576 10584 10592 10601 10612 10618 10626 10633 10640 10644 10650
10766 10765 10762 10760 10757 10752 10748 10744 10739 10733 10727 10722 10716 10709 10701 10693 10683 10674 10665 10655 10644 10634 10622 10611 10601 10591 10579 10570 10561 10555 10550 10548 10545 10544 10544 10544 10545 10547 10550 10554 10556 10560 10564 10573 10580 10587 10596 10604 10611 10617 10623 10629 10633 10641
10751 10750 10747 10744 10740 10736 10731 10728 10723 10717 10712 10705 10699 10691 10683 10674 10664 10654 10644 10634 10624 10613 10601 10590 10581 10573 10563 10553 10548 10544 10541 10540 10539 10540 10540 10541 10543 10545 10548 10552 10555 10559 10566 10572 10576 10582 10589 10597 10603 10610 10615 10621 10626 10635
10736 10734 10731 10727 10723 10719 10715 10711 10707 10701 10695 10689 10682 10673 10663 10654 10645 10634 10622 10612 10603 10592 10582 10573 10564 10555 10547 10541 10538 10536 10534 10535 10536 10537 10538 10540 10543 10546 10549 10553 10556 10559 10562 10568 10573 10577 10582 10589 10596 10601 10607 10613 10622 10630
10719 10716 10713 10710 10706 10702 10698 10695 10690 10685 10678 10672 10663 10654 10644 10634 10623 10612 10601 10591 10583 10575 10567 10557 10549 10542 10537 10533 10531 10529 10530 10532 10533 10535 10537 10541 10544 10547 10550 10552 10555 10559 10563 10565 10568 10572 10576 10581 10588 10594 10600 10607 10614 10622
10702 10700 10697 10694 10690 10686 10682 10679 10673 10666 10660 10653 10645 10635 10623 10614 10602 10592 10583 10574 10565 10558 10551 10543 10537 10532 10529 10526 10525 10525 10527 10529 10532 10534 10537 10540 10543 10546 10549 10553 10555 10557 10559 10561 10563 10564 10566 10571 10577 10584 10590 10598 10607 10614
10686 10683 10680 10677 10673 10669 10665 10661 10655 10648 10641 10634 10626 10614 10604 10593 10584 10577 10569 10559 10551 10544 10536 10530 10526 10523 10520 10518 10519 10521 10524 10528 10530 10533 10536 10539 10542 10545 10549 10552 10555 10556 10558 10558 10560 10562 10563 10566 10571 10577 10583 10589 10595 10604
10667 10665 10662 10658 10654 10651 10647 10642 10636 10630 10622 10616 10605 10594 10585 10578 10569 10562 10554 10546 10537 10531 10524 10521 10517 10514 10512 10513 10515 10518 10522 10526 10529 10532 10535 10537 10541 10545 10547 10550 10553 10557 10557 10559 10560 10559 10562 10567 10572 10574 10578 10584 10589 10595
10648 10646 10643 10640 10636 10632 10628 10624 10618 10612 10606 10597 10587 10579 10570 10564 10556 10547 10540 10533 10524 10519 10514 10511 10508 10506 10506 10508 10511 10516 10520 10524 10525 10528 10533 10536 10540 10545 10549 10552 10555 10557 10558 10561 10561 10562 10565 10567 10571 10575 10579 10583 10588 10592
10630 10627 10624 10622 10618 10614 10610 10605 10600 10595 10589 10578 10572 10567 10557 10550 10543 10533 10526 10520 10514 10510 10504 10502 10501 10500 10501 10503 10507 10512 10516 10520 10521 10526 10531 10535 10539 10543 10548 10551 10554 10557 10557 10559 10562 10563 10566 10569 10571 10575 10578 10583 10585 10590
10609 10606 10604 10601 10599 10595 10591 10587 10583 10578 10572 10564 10559 10552 10544 10536 10528 10520 10513 10507 10502 10499 10495 10494 10495 10495 10497 10500 10503 10507 10509 10512 10518 10523 10528 10533 10538 10542 10546 10550 10555 10556 10556 10558 10562 10566 10568 10569 10571 10572 10574 10580 10584 10589
10586 10584 10582 10581 10578 10576 10573 10570 10566 10562 10557 10551 10546 10538 10529 10522 10514 10508 10502 10497 10493 10489 10488 10488 10489 10490 10493 10496 10498 10500 10505 10510 10513 10519 10526 10532 10536 10540 10544 10549 10552 10555 10559 10562 10564 10567 10569 10569 10569 10570 10572 10575 10582 10588
10564 10564 10563 10561 10560 10559 10557 10554 10552 10548 10542 10536 10531 10524 10516 10509 10503 10497 10492 10487 10484 10482 10482 10482 10483 10486 10489 10493 10497 10500 10506 10511 10515 10519 10525 10530 10534 10538 10542 10547 10552 10555 10557 10562 10565 10566 10567 10567 10569 10572 10573 10577 10581 10587
10545 10546 10546 10545 10544 10544 10543 10540 10537 10533 10530 10522 10516 10511 10503 10497 10492 10487 10483 10479 10477 10475 10476 10476 10478 10481 10485 10489 10494 10498 10504 10509 10514 10520 10523 10527 10529 10535 10542 10546 10548 10551 10554 10557 10561 10564 10566 10567 10567 10571 10573 10577 10582 10585
10529 10530 10530 10531 10530 10531 10529 10526 10522 10518 10515 10509 10504 10498 10491 10487 10482 10478 10475 10473 10470 10470 10470 10472 10476 10479 10483 10489 10495 10500 10505 10509 10513 10516 10519 10522 10529 10535 10538 10542 10544 10547 10549 10553 10556 10560 10563 10564 10566 10569 10571 10573 10575 10579
10514 10515 10516 10516 10516 10515 10514 10511 10508 10505 10501 10496 10492 10487 10481 10477 10474 10472 10469 10467 10467 10467 10469 10472 10475 10478 10483 10489 10494 10500 10504 10507 10511 10514 10517 10522 10528 10530 10535 10538 10541 10544 10547 10549 10554 10558 10560 10562 10564 10566 10569 10572 10574 10577
10498 10499 10500 10501 10501 10500 10498 10497 10495 10491 10488 10484 10480 10476 10472 10469 10468 10466 10464 10464 10464 10465 10467 10470 10472 10476 10481 10487 10493 10498 10502 10505 10509 10511 10514 10519 10524 10530 10533 10535 10537 10541 10544 10546 10550 10554 10557 10558 10560 10562 10564 10566 10568 10570
10481 10483 10484 10485 10485 10485 10484 10482 10480 10478 10476 10473 10471 10467 10464 10463 10463 10461 10461 10460 10462 10464 10466 10469 10473 10477 10482 10487 10493 10496 10499 10502 10507 10509 10512 10516 10521 10525 10528 10531 10534 10537 10539 10542 10545 10548 10550 10553 10555 10556 10558 10558 10558 10560
10468 10469 10470 10471 10472 10472 10472 10470 10468 10466 10464 10463 10461 10459 10458 10457 10458 10457 10457 10458 10460 10463 10465 10468 10471 10476 10481 10486 10490 10493 10497 10502 10504 10507 10510 10513 10518 10522 10525 10527 10530 10533 10535 10537 10538 10540 10542 10545 10546 10546 10545 10547 10549 10549
10459 10461 10461 10462 10462 10461 10460 10459 10458 10457 10455 10454 10453 10452 10452 10453 10454 10454 10454 10456 10458 10462 10464 10467 10472 10476 10481 10485 10488 10490 10492 10496 10500 10503 10506 10510 10515 10518 10521 10523 10525 10528 10531 10531 10531 10531 10532 10534 10533 10532 10534 10538 10540 10539
10452 10453 10453 10453 10453 10452 10451 10451 10449 10448 10448 10447 10447 10447 10448 10449 10451 10452 10453 10455 10458 10462 10465 10469 10473 10478 10482 10485 10486 10488 10490 10493 10496 10500 10503 10507 10511 10514 10516 10519 10519 10520 10522 10522 10521 10523 10524 10523 10522 10523 10524 10524 10524 10523
10446 10447 10447 10447 10447 10446 10446 10445 10444 10443 10443 10442 10442 10443 10445 10447 10448 10449 10451 10454 10458 10463 10467 10471 10475 10478 10481 10484 10485 10487 10488 10490 10495 10498 10501 10502 10504 10506 10509 10512 10511 10512 10511 10510 10514 10515 10515 10514 10514 10514 10512 10510 10507 10506
10441 10442 10443 10443 10443 10443 10443 10442 10440 10439 10439 10439 10440 10440 10441 10443 10446 10448 10451 10453 10458 10463 10468 10472 10476 10479 10481 10482 10484 10487 10489 10490 10492 10494 10496 10497 10499 10500 10501 10500 10502 10502 10500 10503 10504 10505 10503 10501 10499 10498 10497 10496 10494 10492
10439 10441 10442 10443 10443 10443 10442 10441 10439 10438 10437 10437 10438 10439 10440 10442 10445 10448 10452 10455 10459 10463 10469 10473 10477 10479 10482 10483 10485 10487 10488 10489 10490 10491 10492 10493 10493 10493 10492 10493 10492 10491 10491 10490 10491 10491 10488 10485 10484 10482 10480 10478 10476 10472
10438 10440 10442 10444 10445 10446 10445 10443 10441 10440 10439 10439 10440 10441 10443 10445 10448 10451 10455 10459 10463 10467 10472 10476 10479 10480 10481 10482 10483 10484 10484 10485 10485 10485 10485 10485 10484 10482 10480 10480 10480 10479 10477 10475 10473 10471 10469 10468 10466 10463 10460 10457 10453 10449
10439 10443 10445 10448 10449 10450 10450 10449 10449 10448 10447 10447 10448 10449 10450 10452 10455 10458 10461 10465 10469 10473 10476 10478 10479 10480 10481 10481 10481 10481 10481 10481 10480 10480 10479 10478 10476 10474 10472 10469 10467 10465 10463 10461 10457 10454 10451 10448 10446 10442 10439 10435 10431 10427
10443 10446 10449 10451 10453 10455 10456 10457 10458 10458 10458 10459 10459 10460 10461 10463 10465 10467 10470 10472 10474 10476 10477 10478 10479 10479 10480 10479 10478 10477 10475 10474 10472 10471 10469 10467 10466 10463 10460 10456 10452 10449 10445 10441 10438 10435 10432 10429 10424 10420 10416 10411 10406 10402